^^
Station Historical Data
Daily Summary for January 13, 2017 Units:  Metric    English   Both
« Previous Day
Next Day »
Daily Weekly Monthly Yearly Custom
  High: Low: Average:
Temperature: -17.8 °C -18.8 °C -17.6 °C
Dew Point: -17.8 °C -19.5 °C -18.2 °C
Humidity: Humidity% 92% 92%
Wind Speed: 0km/h 0km/h 1.9km/h
Wind Gust: 0km/h - -
Wind- - South
Pressure: 0 hPa 33260.7 hPa -
Precipitation: 213.36 mm    
Historical Graphs
 
 
Tabular Data for January 13, 2017
Time Temperature Dew Point Pressure Wind Wind Speed Wind Gust Humidity Rainfall Rate (Hourly) solar Conditions
-17.8 °C -17.8 °C 0 hPa Calm     Humidity% 0 mm SoftwareType W/m2 Conditions
00:01 -18.8 °C -19.5 °C 33318.2 hPa ESE 6 km/h 9 km/h 92% 0 mm WeatherDisplay:10.37 W/m2 RA
00:07 -18.8 °C -19.4 °C 33318.2 hPa SE 4.7 km/h 20.8 km/h 92% 0 mm WeatherDisplay:10.37 W/m2 RA
00:12 -18.8 °C -19.5 °C 33318.2 hPa SE 11.6 km/h 17.9 km/h 92% 0 mm WeatherDisplay:10.37 W/m2 FEW
00:17 -18.8 °C -19.4 °C 33318.2 hPa East 2.6 km/h 7.7 km/h 92% 0 mm WeatherDisplay:10.37 W/m2 FEW
00:22 -18.8 °C -19.4 °C 33318.2 hPa ESE 3.1 km/h 6 km/h 92% 0 mm WeatherDisplay:10.37 W/m2 FEW
00:27 -18.8 °C -19.4 °C 33304.7 hPa SSE 12.2 km/h 17.9 km/h 92% 0 mm WeatherDisplay:10.37 W/m2 FEW
00:32 -18.8 °C -19.4 °C 33304.7 hPa SSE 6.9 km/h 6.9 km/h 92% 0 mm WeatherDisplay:10.37 W/m2 FEW
00:37 -18.8 °C -19.4 °C 33304.7 hPa SSW 8.9 km/h 15 km/h 92% 0 mm WeatherDisplay:10.37 W/m2 FEW
00:42 -18.8 °C -19.4 °C 33304.7 hPa SSE 6 km/h 15 km/h 92% 0 mm WeatherDisplay:10.37 W/m2 FEW
00:47 -18.8 °C -19.4 °C 33304.7 hPa Calm   9 km/h 92% 7.62 mm WeatherDisplay:10.37 W/m2 RA
00:52 -18.8 °C -19.4 °C 33304.7 hPa SSE 12.4 km/h 12.4 km/h 92% 7.62 mm WeatherDisplay:10.37 W/m2 RA
00:57 -18.8 °C -19.4 °C 33304.7 hPa SE 2.3 km/h 9 km/h 92% 12.7 mm WeatherDisplay:10.37 W/m2 RA
01:02 -18.8 °C -19.4 °C 33304.7 hPa SE 4.2 km/h 20.9 km/h 92% 12.7 mm WeatherDisplay:10.37 W/m2 RA
01:07 -18.8 °C -19.4 °C 33304.7 hPa SSE 10.3 km/h 10.3 km/h 92% 12.7 mm WeatherDisplay:10.37 W/m2 FEW
01:12 -18.8 °C -19.4 °C 33304.7 hPa ESE 6.8 km/h 20.9 km/h 92% 12.7 mm WeatherDisplay:10.37 W/m2 RA
01:17 -18.8 °C -19.4 °C 33304.7 hPa Calm     92% 12.7 mm WeatherDisplay:10.37 W/m2 RA
01:22 -18.8 °C -19.4 °C 33294.5 hPa SE 2.9 km/h 9 km/h 92% 20.32 mm WeatherDisplay:10.37 W/m2 RA
01:27 -18.7 °C -19.3 °C 33294.5 hPa Calm     92% 25.4 mm WeatherDisplay:10.37 W/m2 RA
01:32 -18.7 °C -19.3 °C 33294.5 hPa SE 0.5 km/h 9 km/h 92% 25.4 mm WeatherDisplay:10.37 W/m2 RA
01:37 -18.7 °C -19.3 °C 33294.5 hPa South 3.9 km/h 11.9 km/h 92% 33.02 mm WeatherDisplay:10.37 W/m2 RA
01:42 -18.7 °C -19.3 °C 33294.5 hPa SSE 4.3 km/h 9 km/h 92% 38.1 mm WeatherDisplay:10.37 W/m2 RA
01:47 -18.7 °C -19.3 °C 33284.4 hPa Calm   9 km/h 92% 38.1 mm WeatherDisplay:10.37 W/m2 RA
01:52 -18.7 °C -19.3 °C 33284.4 hPa SE 6.8 km/h 9 km/h 92% 38.1 mm WeatherDisplay:10.37 W/m2 RA
01:57 -18.7 °C -19.3 °C 33284.4 hPa ESE 4.3 km/h 9 km/h 92% 38.1 mm WeatherDisplay:10.37 W/m2 RA
02:02 -18.7 °C -19.3 °C 33284.4 hPa SE 1.8 km/h 9 km/h 92% 45.72 mm WeatherDisplay:10.37 W/m2 RA
02:07 -18.6 °C -19.2 °C 33284.4 hPa East 4.2 km/h 9 km/h 92% 45.72 mm WeatherDisplay:10.37 W/m2 RA
02:12 -18.6 °C -19.2 °C 33284.4 hPa SE 1.3 km/h 3.1 km/h 92% 45.72 mm WeatherDisplay:10.37 W/m2 RA
02:17 -18.6 °C -19.2 °C 33284.4 hPa ESE 4.2 km/h 6 km/h 92% 45.72 mm WeatherDisplay:10.37 W/m2 RA
02:22 -18.6 °C -19.2 °C 33284.4 hPa SE 5.6 km/h 9 km/h 92% 38.1 mm WeatherDisplay:10.37 W/m2 FEW
02:27 -18.5 °C -19.1 °C 33284.4 hPa SE 1.8 km/h 7.7 km/h 92% 38.1 mm WeatherDisplay:10.37 W/m2 RA
02:32 -18.5 °C -19.1 °C 33284.4 hPa Calm   9 km/h 92% 38.1 mm WeatherDisplay:10.37 W/m2 RA
02:37 -18.5 °C -19.1 °C 33284.4 hPa Calm   9 km/h 92% 38.1 mm WeatherDisplay:10.37 W/m2 FEW
02:42 -18.4 °C -19.1 °C 33284.4 hPa South 0.8 km/h 3.1 km/h 92% 38.1 mm WeatherDisplay:10.37 W/m2 RA
02:47 -18.4 °C -19 °C 33284.4 hPa WSW 0.5 km/h   92% 33.02 mm WeatherDisplay:10.37 W/m2 RA
02:52 -18.4 °C -19 °C 33284.4 hPa Calm   9 km/h 92% 33.02 mm WeatherDisplay:10.37 W/m2 RA
02:57 -18.3 °C -18.9 °C 33270.8 hPa SSE 0.5 km/h 5.1 km/h 92% 25.4 mm WeatherDisplay:10.37 W/m2 RA
03:02 -18.3 °C -18.9 °C 33270.8 hPa SSW 1.6 km/h 7.7 km/h 92% 20.32 mm WeatherDisplay:10.37 W/m2 FEW
03:07 -18.3 °C -18.9 °C 33270.8 hPa SSE 6 km/h 15 km/h 92% 20.32 mm WeatherDisplay:10.37 W/m2 FEW
03:12 -18.3 °C -18.9 °C 33270.8 hPa SE 0.8 km/h 9 km/h 92% 12.7 mm WeatherDisplay:10.37 W/m2 FEW
03:17 -18.2 °C -18.8 °C 33270.8 hPa SE 3.1 km/h 6 km/h 92% 12.7 mm WeatherDisplay:10.37 W/m2 FEW
03:22 -18.2 °C -18.8 °C 33270.8 hPa SW 1 km/h 9 km/h 92% 12.7 mm WeatherDisplay:10.37 W/m2 FEW
03:27 -18.2 °C -18.8 °C 33270.8 hPa South 0.8 km/h 6 km/h 92% 12.7 mm WeatherDisplay:10.37 W/m2 FEW
03:32 -18.2 °C -18.8 °C 33270.8 hPa Calm   5.1 km/h 92% 12.7 mm WeatherDisplay:10.37 W/m2 FEW
03:37 -18.2 °C -18.8 °C 33270.8 hPa ESE 4.7 km/h 9 km/h 92% 12.7 mm WeatherDisplay:10.37 W/m2 FEW
03:42 -18.1 °C -18.7 °C 33270.8 hPa Calm     92% 12.7 mm WeatherDisplay:10.37 W/m2 RA
03:47 -18.1 °C -18.7 °C 33270.8 hPa SW 4.2 km/h 17.9 km/h 92% 12.7 mm WeatherDisplay:10.37 W/m2 RA
03:52 -18 °C -18.7 °C 33270.8 hPa SSW 5 km/h 11.9 km/h 92% 7.62 mm WeatherDisplay:10.37 W/m2 FEW
03:57 -18 °C -18.7 °C 33270.8 hPa Calm   9 km/h 92% 7.62 mm WeatherDisplay:10.37 W/m2 FEW
04:02 -17.9 °C -18.6 °C 33270.8 hPa South 5.6 km/h 15 km/h 92% 7.62 mm WeatherDisplay:10.37 W/m2 FEW
04:07 -17.9 °C -18.6 °C 33270.8 hPa Calm   3.1 km/h 92% 7.62 mm WeatherDisplay:10.37 W/m2 FEW
04:12 -17.9 °C -18.6 °C 33270.8 hPa SSE 0.8 km/h   92% 7.62 mm WeatherDisplay:10.37 W/m2 FEW
04:17 -17.9 °C -18.6 °C 33270.8 hPa Calm     92% 7.62 mm WeatherDisplay:10.37 W/m2 FEW
04:22 -17.9 °C -18.6 °C 33270.8 hPa Calm   9 km/h 92% 7.62 mm WeatherDisplay:10.37 W/m2 FEW
04:27 -17.9 °C -18.5 °C 33260.7 hPa SSE 5.1 km/h 7.7 km/h 92% 7.62 mm WeatherDisplay:10.37 W/m2 FEW
04:32 -17.8 °C -18.4 °C 33260.7 hPa SSE 0.5 km/h 9 km/h 92% 12.7 mm WeatherDisplay:10.37 W/m2 RA
04:37 -17.8 °C -18.4 °C 33260.7 hPa East 1.3 km/h 9 km/h 92% 12.7 mm WeatherDisplay:10.37 W/m2 RA
04:42 -17.7 °C -18.4 °C 33260.7 hPa SE 1 km/h 9 km/h 92% 7.62 mm WeatherDisplay:10.37 W/m2 FEW
04:47 -17.7 °C -18.4 °C 33260.7 hPa SSE 3.7 km/h 15 km/h 92% 12.7 mm WeatherDisplay:10.37 W/m2 RA
04:52 -17.7 °C -18.4 °C 33260.7 hPa SSE 0.3 km/h 3.1 km/h 92% 12.7 mm WeatherDisplay:10.37 W/m2 RA
04:57 -17.7 °C -18.3 °C 33260.7 hPa SSE 2.9 km/h   92% 12.7 mm WeatherDisplay:10.37 W/m2 FEW
05:02 -17.7 °C -18.3 °C 33260.7 hPa SE 1 km/h 9 km/h 92% 12.7 mm WeatherDisplay:10.37 W/m2 FEW
05:07 -17.7 °C -18.3 °C 33260.7 hPa South 0.5 km/h 7.7 km/h 92% 12.7 mm WeatherDisplay:10.37 W/m2 RA
05:12 -17.7 °C -18.3 °C 33260.7 hPa Calm     92% 12.7 mm WeatherDisplay:10.37 W/m2 RA
05:17 -17.7 °C -18.3 °C 33260.7 hPa SSW 2.3 km/h 9 km/h 92% 20.32 mm WeatherDisplay:10.37 W/m2 RA
05:22 -17.6 °C -18.3 °C 33260.7 hPa SSE 2.3 km/h   92% 20.32 mm WeatherDisplay:10.37 W/m2 RA
05:27 -17.6 °C -18.2 °C 33270.8 hPa SSW 2.3 km/h   92% 20.32 mm WeatherDisplay:10.37 W/m2 FEW
05:32 -17.6 °C -18.2 °C 33270.8 hPa Calm     92% 12.7 mm WeatherDisplay:10.37 W/m2 FEW
05:37 -17.6 °C -18.2 °C 33270.8 hPa Calm   6 km/h 92% 12.7 mm WeatherDisplay:10.37 W/m2 FEW
05:42 -17.6 °C -18.2 °C 33270.8 hPa Calm     92% 12.7 mm WeatherDisplay:10.37 W/m2 FEW
05:47 -17.6 °C -18.2 °C 33270.8 hPa Calm     92% 12.7 mm WeatherDisplay:10.37 W/m2 RA
05:52 -17.6 °C -18.2 °C 33270.8 hPa Calm   3.1 km/h 92% 12.7 mm WeatherDisplay:10.37 W/m2 RA
05:57 -17.6 °C -18.2 °C 33270.8 hPa Calm     92% 12.7 mm WeatherDisplay:10.37 W/m2 FEW
06:02 -17.6 °C -18.2 °C 33270.8 hPa Calm     92% 12.7 mm WeatherDisplay:10.37 W/m2 FEW
06:07 -17.6 °C -18.2 °C 33270.8 hPa Calm     92% 12.7 mm WeatherDisplay:10.37 W/m2 FEW
06:12 -17.6 °C -18.2 °C 33270.8 hPa Calm     92% 12.7 mm WeatherDisplay:10.37 W/m2 FEW
06:17 -17.6 °C -18.2 °C 33270.8 hPa Calm     92% 7.62 mm WeatherDisplay:10.37 W/m2 FEW
06:22 -17.6 °C -18.2 °C 33270.8 hPa Calm     92% 7.62 mm WeatherDisplay:10.37 W/m2 FEW
06:27 -17.6 °C -18.2 °C 33270.8 hPa Calm     92% 7.62 mm WeatherDisplay:10.37 W/m2 FEW
06:32 -17.6 °C -18.2 °C 33284.4 hPa Calm     92% 7.62 mm WeatherDisplay:10.37 W/m2 FEW
06:37 -17.6 °C -18.2 °C 33284.4 hPa Calm     92% 7.62 mm WeatherDisplay:10.37 W/m2 FEW
06:42 -17.6 °C -18.2 °C 33284.4 hPa SSE 0.5 km/h 6 km/h 92% 7.62 mm WeatherDisplay:10.37 W/m2 FEW
06:47 -17.6 °C -18.2 °C 33284.4 hPa Calm     92% 0 mm WeatherDisplay:10.37 W/m2 FEW
06:52 -17.6 °C -18.2 °C 33284.4 hPa Calm     92% 0 mm WeatherDisplay:10.37 W/m2 FEW
06:57 -17.6 °C -18.2 °C 33284.4 hPa SSE 0.8 km/h 9 km/h 92% 0 mm WeatherDisplay:10.37 W/m2 FEW
07:02 -17.6 °C -18.2 °C 33284.4 hPa Calm     92% 0 mm WeatherDisplay:10.37 W/m2 FEW
07:07 -17.6 °C -18.2 °C 33294.5 hPa Calm     92% 0 mm WeatherDisplay:10.37 W/m2 FEW
07:12 -17.6 °C -18.2 °C 33294.5 hPa Calm     92% 0 mm WeatherDisplay:10.37 W/m2 FEW
07:17 -17.6 °C -18.2 °C 33294.5 hPa Calm     92% 0 mm WeatherDisplay:10.37 W/m2 FEW
07:22 -17.6 °C -18.2 °C 33294.5 hPa Calm     92% 0 mm WeatherDisplay:10.37 W/m2 FEW
07:27 -17.6 °C -18.2 °C 33294.5 hPa Calm     92% 0 mm WeatherDisplay:10.37 W/m2 FEW
07:32 -17.6 °C -18.2 °C 33294.5 hPa Calm     92% 0 mm WeatherDisplay:10.37 W/m2 FEW
07:37 -17.6 °C -18.2 °C 33294.5 hPa Calm     92% 0 mm WeatherDisplay:10.37 W/m2 FEW
07:42 -17.6 °C -18.2 °C 33294.5 hPa Calm     92% 0 mm WeatherDisplay:10.37 W/m2 FEW
07:47 -17.6 °C -18.2 °C 33294.5 hPa Calm     92% 0 mm WeatherDisplay:10.37 W/m2 FEW
07:52 -17.6 °C -18.2 °C 33294.5 hPa Calm     92% 0 mm WeatherDisplay:10.37 W/m2 FEW
07:57 -17.6 °C -18.2 °C 33304.7 hPa Calm     92% 0 mm WeatherDisplay:10.37 W/m2 FEW
08:02 -17.6 °C -18.2 °C 33304.7 hPa Calm     92% 0 mm WeatherDisplay:10.37 W/m2 FEW
08:07 -17.6 °C -18.2 °C 33304.7 hPa SSE 1.3 km/h 6 km/h 92% 0 mm WeatherDisplay:10.37 W/m2 FEW
08:12 -17.6 °C -18.2 °C 33304.7 hPa Calm     92% 0 mm WeatherDisplay:10.37 W/m2 FEW
08:17 -17.5 °C -18.2 °C 33304.7 hPa South 1.8 km/h 9 km/h 92% 0 mm WeatherDisplay:10.37 W/m2 FEW
08:22 -17.5 °C -18.2 °C 33304.7 hPa Calm     92% 0 mm WeatherDisplay:10.37 W/m2 FEW
08:27 -17.4 °C -18.1 °C 33318.2 hPa Calm     92% 0 mm WeatherDisplay:10.37 W/m2 FEW
08:32 -17.4 °C -18.1 °C 33318.2 hPa Calm     92% 0 mm WeatherDisplay:10.37 W/m2 FEW
08:37 -17.4 °C -18.1 °C 33318.2 hPa South 1 km/h 7.7 km/h 92% 0 mm WeatherDisplay:10.37 W/m2 FEW
08:42 -17.4 °C -18 °C 33318.2 hPa Calm     92% 0 mm WeatherDisplay:10.37 W/m2 FEW
08:47 -17.3 °C -18 °C 33318.2 hPa Calm     92% 0 mm WeatherDisplay:10.37 W/m2 FEW
08:52 -17.3 °C -18 °C 33328.4 hPa Calm     92% 0 mm WeatherDisplay:10.37 W/m2 FEW
08:57 -17.3 °C -18 °C 33328.4 hPa Calm     92% 0 mm WeatherDisplay:10.37 W/m2 FEW
09:02 -17.4 °C -18 °C 33328.4 hPa Calm     92% 0 mm WeatherDisplay:10.37 W/m2 FEW
09:07 -17.4 °C -18.1 °C 33328.4 hPa Calm     92% 0 mm WeatherDisplay:10.37 W/m2 FEW
09:12 -17.4 °C -18.1 °C 33328.4 hPa WSW 0.3 km/h 6 km/h 92% 0 mm WeatherDisplay:10.37 W/m2 FEW
09:17 -17.4 °C -18.1 °C 33328.4 hPa SW 0.8 km/h   92% 0 mm WeatherDisplay:10.37 W/m2 FEW
09:22 -17.4 °C -18.1 °C 33338.6 hPa Calm     92% 0 mm WeatherDisplay:10.37 W/m2 FEW
09:27 -17.4 °C -18.1 °C 33338.6 hPa Calm     92% 0 mm WeatherDisplay:10.37 W/m2 FEW
09:28 -17.4 °C -18.1 °C 33338.6 hPa Calm     92% 0 mm WeatherDisplay:10.37 W/m2 FEW
09:33 -17.4 °C -18.1 °C 33338.6 hPa Calm     92% 0 mm WeatherDisplay:10.37 W/m2 FEW
09:38 -17.4 °C -18.1 °C 33338.6 hPa South 3.9 km/h   92% 0 mm WeatherDisplay:10.37 W/m2 FEW
09:43 -17.4 °C -18.1 °C 33338.6 hPa Calm     92% 0 mm WeatherDisplay:10.37 W/m2 FEW
09:48 -17.4 °C -18.1 °C 33338.6 hPa South 5.6 km/h 17.9 km/h 92% 0 mm WeatherDisplay:10.37 W/m2 FEW
09:53 -17.4 °C -18.1 °C 33338.6 hPa Calm     92% 0 mm WeatherDisplay:10.37 W/m2 FEW
09:58 -17.4 °C -18.1 °C 33352.1 hPa Calm     92% 0 mm WeatherDisplay:10.37 W/m2 FEW
10:03 -17.4 °C -18.1 °C 33352.1 hPa Calm     92% 0 mm WeatherDisplay:10.37 W/m2 FEW
10:08 -17.4 °C -18.1 °C 33352.1 hPa Calm     92% 0 mm WeatherDisplay:10.37 W/m2 FEW
10:13 -17.4 °C -18.1 °C 33352.1 hPa Calm     92% 0 mm WeatherDisplay:10.37 W/m2 FEW
10:18 -17.4 °C -18.1 °C 33352.1 hPa Calm     92% 0 mm WeatherDisplay:10.37 W/m2 FEW
10:23 -17.4 °C -18 °C 33352.1 hPa SSW 0.5 km/h 3.1 km/h 92% 0 mm WeatherDisplay:10.37 W/m2 FEW
10:28 -17.4 °C -18 °C 33352.1 hPa SW 0.3 km/h 9 km/h 92% 0 mm WeatherDisplay:10.37 W/m2 FEW
10:33 -17.3 °C -18 °C 33352.1 hPa SSE 0.5 km/h 9 km/h 92% 0 mm WeatherDisplay:10.37 W/m2 FEW
10:38 -17.3 °C -17.9 °C 33362.3 hPa South 0.5 km/h 5.1 km/h 92% 0 mm WeatherDisplay:10.37 W/m2 FEW
10:43 -17.3 °C -18 °C 33362.3 hPa SSE 1.8 km/h 6 km/h 92% 0 mm WeatherDisplay:10.37 W/m2 FEW
10:48 -17.3 °C -17.9 °C 33362.3 hPa SSE 2.6 km/h 9 km/h 92% 0 mm WeatherDisplay:10.37 W/m2 FEW
10:53 -17.3 °C -18 °C 33362.3 hPa Calm   9 km/h 92% 7.62 mm WeatherDisplay:10.37 W/m2 RA
10:58 -17.3 °C -18 °C 33362.3 hPa Calm   11.9 km/h 92% 7.62 mm WeatherDisplay:10.37 W/m2 RA
11:03 -17.3 °C -18 °C 33362.3 hPa SSE 2.3 km/h 11.9 km/h 92% 7.62 mm WeatherDisplay:10.37 W/m2 FEW
11:08 -17.3 °C -17.9 °C 33362.3 hPa SSE 0.8 km/h 9 km/h 92% 12.7 mm WeatherDisplay:10.37 W/m2 RA
11:13 -17.3 °C -17.9 °C 33362.3 hPa ENE 1.6 km/h   92% 12.7 mm WeatherDisplay:10.37 W/m2 RA
11:18 -17.2 °C -17.9 °C 33362.3 hPa SE 3.9 km/h 9 km/h 92% 12.7 mm WeatherDisplay:10.37 W/m2 FEW
11:23 -17.2 °C -17.8 °C 33362.3 hPa NNE 1.6 km/h 2.6 km/h 92% 12.7 mm WeatherDisplay:10.37 W/m2 FEW
11:29 -17.2 °C -17.9 °C 33375.8 hPa South 0.5 km/h 9 km/h 92% 20.32 mm WeatherDisplay:10.37 W/m2 RA
11:34 -17.3 °C -17.9 °C 33375.8 hPa Calm     92% 20.32 mm WeatherDisplay:10.37 W/m2 RA
11:39 -17.3 °C -17.9 °C 33375.8 hPa Calm     92% 25.4 mm WeatherDisplay:10.37 W/m2 RA
11:44 -17.3 °C -18 °C 33375.8 hPa Calm     92% 25.4 mm WeatherDisplay:10.37 W/m2 RA
11:49 -17.4 °C -18 °C 33375.8 hPa Calm     92% 33.02 mm WeatherDisplay:10.37 W/m2 RA
11:54 -17.4 °C -18.1 °C 33375.8 hPa Calm     92% 33.02 mm WeatherDisplay:10.37 W/m2 RA
11:59 -17.4 °C -18.1 °C 33375.8 hPa Calm   3.1 km/h 92% 38.1 mm WeatherDisplay:10.37 W/m2 RA
12:04 -17.4 °C -18.1 °C 33375.8 hPa North 3.4 km/h 9 km/h 92% 38.1 mm WeatherDisplay:10.37 W/m2 RA
12:09 -17.4 °C -18.1 °C 33386 hPa South 2.3 km/h 9 km/h 92% 45.72 mm WeatherDisplay:10.37 W/m2 RA
12:14 -17.4 °C -18.1 °C 33386 hPa SSE 2.6 km/h 10.3 km/h 92% 45.72 mm WeatherDisplay:10.37 W/m2 RA
12:19 -17.4 °C -18.1 °C 33386 hPa Calm   3.1 km/h 92% 50.8 mm WeatherDisplay:10.37 W/m2 RA
12:24 -17.4 °C -18.1 °C 33386 hPa West 0.8 km/h 9 km/h 92% 45.72 mm WeatherDisplay:10.37 W/m2 RA
12:29 -17.4 °C -18.1 °C 33386 hPa Calm     92% 38.1 mm WeatherDisplay:10.37 W/m2 FEW
12:34 -17.4 °C -18.1 °C 33386 hPa Calm   6 km/h 92% 38.1 mm WeatherDisplay:10.37 W/m2 FEW
12:39 -17.4 °C -18.1 °C 33386 hPa Calm     92% 38.1 mm WeatherDisplay:10.37 W/m2 RA
12:44 -17.4 °C -18.1 °C 33386 hPa WNW 2.1 km/h 9 km/h 92% 38.1 mm WeatherDisplay:10.37 W/m2 RA
12:49 -17.4 °C -18.1 °C 33386 hPa Calm     92% 38.1 mm WeatherDisplay:10.37 W/m2 FEW
12:54 -17.4 °C -18.1 °C 33386 hPa Calm   3.1 km/h 92% 33.02 mm WeatherDisplay:10.37 W/m2 FEW
12:59 -17.4 °C -18.1 °C 33386 hPa South 4.2 km/h 9 km/h 92% 25.4 mm WeatherDisplay:10.37 W/m2 FEW
13:04 -17.4 °C -18.1 °C 33386 hPa SSE 1 km/h 6 km/h 92% 20.32 mm WeatherDisplay:10.37 W/m2 FEW
13:09 -17.4 °C -18.1 °C 33396.1 hPa Calm     92% 12.7 mm WeatherDisplay:10.37 W/m2 FEW
13:14 -17.4 °C -18.1 °C 33396.1 hPa Calm   3.1 km/h 92% 12.7 mm WeatherDisplay:10.37 W/m2 RA
13:19 -17.4 °C -18.1 °C 33396.1 hPa Calm   6 km/h 92% 12.7 mm WeatherDisplay:10.37 W/m2 RA
13:24 -17.4 °C -18.1 °C 33396.1 hPa Calm     92% 20.32 mm WeatherDisplay:10.37 W/m2 RA
13:29 -17.4 °C -18.1 °C 33396.1 hPa Calm     92% 20.32 mm WeatherDisplay:10.37 W/m2 RA
13:34 -17.4 °C -18.1 °C 33396.1 hPa Calm   3.1 km/h 92% 25.4 mm WeatherDisplay:10.37 W/m2 RA
13:39 -17.4 °C -18.1 °C 33409.7 hPa Calm     92% 20.32 mm WeatherDisplay:10.37 W/m2 RA
13:44 -17.4 °C -18.1 °C 33396.1 hPa SSE 0.8 km/h 3.1 km/h 92% 20.32 mm WeatherDisplay:10.37 W/m2 FEW
13:49 -17.4 °C -18.1 °C 33396.1 hPa SSE 1 km/h 6 km/h 92% 20.32 mm WeatherDisplay:10.37 W/m2 FEW
13:54 -17.4 °C -18.1 °C 33396.1 hPa SSE 0.3 km/h   92% 20.32 mm WeatherDisplay:10.37 W/m2 FEW
13:59 -17.4 °C -18 °C 33409.7 hPa SSE 4.7 km/h 9 km/h 92% 20.32 mm WeatherDisplay:10.37 W/m2 FEW
14:04 -17.3 °C -18 °C 33409.7 hPa SSE 1.8 km/h 17.9 km/h 92% 20.32 mm WeatherDisplay:10.37 W/m2 FEW
14:09 -17.3 °C -18 °C 33409.7 hPa South 0.8 km/h 6 km/h 92% 20.32 mm WeatherDisplay:10.37 W/m2 FEW
14:14 -17.3 °C -17.9 °C 33409.7 hPa SSW 1 km/h 9 km/h 92% 12.7 mm WeatherDisplay:10.37 W/m2 FEW
14:19 -17.3 °C -17.9 °C 33409.7 hPa SSE 2.9 km/h 2.9 km/h 92% 12.7 mm WeatherDisplay:10.37 W/m2 FEW
14:24 -17.3 °C -17.9 °C 33419.8 hPa SSW 8 km/h 15 km/h 92% 7.62 mm WeatherDisplay:10.37 W/m2 FEW
14:29 -17.3 °C -17.9 °C 33419.8 hPa South 1.6 km/h 15 km/h 92% 7.62 mm WeatherDisplay:10.37 W/m2 FEW
14:34 -17.3 °C -17.9 °C 33419.8 hPa SSW 6.4 km/h 17.9 km/h 92% 0 mm WeatherDisplay:10.37 W/m2 FEW
14:39 -17.3 °C -17.9 °C 33419.8 hPa Calm     92% 0 mm WeatherDisplay:10.37 W/m2 FEW
14:44 -17.3 °C -17.9 °C 33433.4 hPa SE 0.8 km/h 18.2 km/h 92% 0 mm WeatherDisplay:10.37 W/m2 FEW
14:49 -17.3 °C -17.9 °C 33433.4 hPa SE 3.4 km/h 7.7 km/h 92% 0 mm WeatherDisplay:10.37 W/m2 FEW
14:54 -17.3 °C -17.9 °C 33433.4 hPa North 5.5 km/h 9 km/h 92% 0 mm WeatherDisplay:10.37 W/m2 FEW
14:59 -17.3 °C -17.9 °C 33433.4 hPa South 3.1 km/h 10.3 km/h 92% 0 mm WeatherDisplay:10.37 W/m2 FEW
15:04 -17.3 °C -17.9 °C 33433.4 hPa South 6.3 km/h 20.9 km/h 92% 0 mm WeatherDisplay:10.37 W/m2 FEW
15:09 -17.3 °C -17.9 °C 33433.4 hPa South 4.7 km/h 12.9 km/h 92% 0 mm WeatherDisplay:10.37 W/m2 FEW
15:14 -17.3 °C -17.9 °C 33433.4 hPa SW 1.3 km/h 15 km/h 92% 0 mm WeatherDisplay:10.37 W/m2 FEW
15:19 -17.3 °C -17.9 °C 33443.5 hPa SW 0.5 km/h 6 km/h 92% 0 mm WeatherDisplay:10.37 W/m2 FEW
15:24 -17.3 °C -17.9 °C 33443.5 hPa WSW 0.3 km/h 9 km/h 92% 0 mm WeatherDisplay:10.37 W/m2 FEW
15:29 -17.3 °C -17.9 °C 33443.5 hPa Calm     92% 0 mm WeatherDisplay:10.37 W/m2 FEW
15:34 -17.3 °C -17.9 °C 33443.5 hPa SSE 3.1 km/h 9 km/h 92% 0 mm WeatherDisplay:10.37 W/m2 FEW
15:39 -17.3 °C -17.9 °C 33443.5 hPa SSW 5.6 km/h 23.8 km/h 92% 0 mm WeatherDisplay:10.37 W/m2 FEW
15:44 -17.3 °C -17.9 °C 33443.5 hPa South 6.9 km/h 15 km/h 92% 0 mm WeatherDisplay:10.37 W/m2 FEW
15:49 -17.3 °C -17.9 °C 33443.5 hPa South 4.7 km/h 12.9 km/h 92% 0 mm WeatherDisplay:10.37 W/m2 FEW
15:54 -17.3 °C -17.9 °C 33443.5 hPa Calm   10.3 km/h 92% 0 mm WeatherDisplay:10.37 W/m2 FEW
15:59 -17.3 °C -18 °C 33453.7 hPa SSW 2.3 km/h 9 km/h 92% 0 mm WeatherDisplay:10.37 W/m2 FEW
16:04 -17.3 °C -17.9 °C 33453.7 hPa NNW 2.1 km/h 5.1 km/h 92% 0 mm WeatherDisplay:10.37 W/m2 FEW
16:09 -17.3 °C -17.9 °C 33453.7 hPa SSW 6.4 km/h 20.9 km/h 92% 0 mm WeatherDisplay:10.37 W/m2 FEW
16:14 -17.3 °C -18 °C 33453.7 hPa SSW 2.6 km/h 9 km/h 92% 0 mm WeatherDisplay:10.37 W/m2 FEW
16:19 -17.3 °C -18 °C 33453.7 hPa SSE 1.6 km/h 6 km/h 92% 7.62 mm WeatherDisplay:10.37 W/m2 RA
16:24 -17.4 °C -18 °C 33453.7 hPa South 4.3 km/h 9 km/h 92% 7.62 mm WeatherDisplay:10.37 W/m2 RA
16:29 -17.4 °C -18.1 °C 33453.7 hPa SE 9.7 km/h 17.9 km/h 92% 7.62 mm WeatherDisplay:10.37 W/m2 FEW
16:34 -17.4 °C -18 °C 33453.7 hPa East 7.7 km/h 20.9 km/h 92% 7.62 mm WeatherDisplay:10.37 W/m2 FEW
16:39 -17.4 °C -18 °C 33453.7 hPa SW 7.2 km/h 20.9 km/h 92% 7.62 mm WeatherDisplay:10.37 W/m2 FEW
16:44 -17.4 °C -18 °C 33453.7 hPa SSE 6 km/h 11.9 km/h 92% 7.62 mm WeatherDisplay:10.37 W/m2 FEW
16:49 -17.3 °C -18 °C 33467.2 hPa East 1.6 km/h 9 km/h 92% 7.62 mm WeatherDisplay:10.37 W/m2 FEW
16:54 -17.3 °C -18 °C 33467.2 hPa SSW 5.5 km/h 11.9 km/h 92% 7.62 mm WeatherDisplay:10.37 W/m2 FEW
16:59 -17.3 °C -18 °C 33467.2 hPa South 4.7 km/h 15.6 km/h 92% 7.62 mm WeatherDisplay:10.37 W/m2 FEW
17:04 -17.3 °C -18 °C 33467.2 hPa SSW 5.6 km/h 10.3 km/h 92% 7.62 mm WeatherDisplay:10.37 W/m2 FEW
17:09 -17.3 °C -18 °C 33467.2 hPa ESE 7.7 km/h 11.9 km/h 92% 7.62 mm WeatherDisplay:10.37 W/m2 FEW
17:14 -17.3 °C -18 °C 33467.2 hPa West 1.8 km/h 6 km/h 92% 7.62 mm WeatherDisplay:10.37 W/m2 FEW
17:19 -17.3 °C -18 °C 33477.4 hPa ENE 2.1 km/h 6 km/h 92% 0 mm WeatherDisplay:10.37 W/m2 FEW
17:24 -17.3 °C -18 °C 33477.4 hPa South 4.7 km/h 11.9 km/h 92% 0 mm WeatherDisplay:10.37 W/m2 FEW
17:29 -17.3 °C -18 °C 33477.4 hPa South 4.2 km/h 11.9 km/h 92% 0 mm WeatherDisplay:10.37 W/m2 FEW
17:34 -17.3 °C -18 °C 33477.4 hPa SSE 0.3 km/h 6 km/h 92% 0 mm WeatherDisplay:10.37 W/m2 FEW
17:39 -17.4 °C -18 °C 33477.4 hPa Calm     92% 0 mm WeatherDisplay:10.37 W/m2 FEW
17:44 -17.4 °C -18 °C 33477.4 hPa SSW 6.9 km/h 11.9 km/h 92% 0 mm WeatherDisplay:10.37 W/m2 FEW
17:49 -17.3 °C -18 °C 33477.4 hPa South 2.9 km/h 9 km/h 92% 0 mm WeatherDisplay:10.37 W/m2 FEW
17:54 -17.3 °C -18 °C 33477.4 hPa South 4.7 km/h 9 km/h 92% 0 mm WeatherDisplay:10.37 W/m2 FEW
17:59 -17.3 °C -18 °C 33490.9 hPa SSW 4.3 km/h 9 km/h 92% 0 mm WeatherDisplay:10.37 W/m2 FEW
18:04 -17.3 °C -18 °C 33477.4 hPa Calm     92% 0 mm WeatherDisplay:10.37 W/m2 FEW
18:09 -17.3 °C -18 °C 33490.9 hPa SW 2.1 km/h 15.6 km/h 92% 0 mm WeatherDisplay:10.37 W/m2 FEW
18:14 -17.3 °C -18 °C 33490.9 hPa Calm   5.1 km/h 92% 0 mm WeatherDisplay:10.37 W/m2 FEW
18:19 -17.3 °C -18 °C 33490.9 hPa SSE 2.6 km/h 9 km/h 92% 0 mm WeatherDisplay:10.37 W/m2 FEW
18:24 -17.3 °C -18 °C 33477.4 hPa WSW 1 km/h 6 km/h 92% 7.62 mm WeatherDisplay:10.37 W/m2 RA
18:29 -17.3 °C -18 °C 33490.9 hPa SSE 6.9 km/h 17.9 km/h 92% 7.62 mm WeatherDisplay:10.37 W/m2 RA
18:34 -17.3 °C -18 °C 33490.9 hPa South 4.7 km/h 11.9 km/h 92% 7.62 mm WeatherDisplay:10.37 W/m2 FEW
18:39 -17.3 °C -18 °C 33490.9 hPa NNW 6.8 km/h 11.9 km/h 92% 7.62 mm WeatherDisplay:10.37 W/m2 FEW
18:44 -17.3 °C -18 °C 33490.9 hPa South 3.4 km/h 12.9 km/h 92% 7.62 mm WeatherDisplay:10.37 W/m2 FEW
18:49 -17.3 °C -18 °C 33490.9 hPa SSW 4.3 km/h 15 km/h 92% 7.62 mm WeatherDisplay:10.37 W/m2 FEW
18:54 -17.3 °C -17.9 °C 33490.9 hPa West 5.5 km/h 15 km/h 92% 7.62 mm WeatherDisplay:10.37 W/m2 FEW
18:59 -17.3 °C -18 °C 33490.9 hPa South 1.6 km/h 6 km/h 92% 7.62 mm WeatherDisplay:10.37 W/m2 FEW
19:04 -17.3 °C -18 °C 33490.9 hPa South 7.6 km/h 15 km/h 92% 7.62 mm WeatherDisplay:10.37 W/m2 FEW
19:09 -17.3 °C -17.9 °C 33490.9 hPa SSE 3.4 km/h 9 km/h 92% 7.62 mm WeatherDisplay:10.37 W/m2 FEW
19:14 -17.3 °C -17.9 °C 33501.1 hPa South 3.4 km/h 9 km/h 92% 7.62 mm WeatherDisplay:10.37 W/m2 FEW
19:19 -17.3 °C -17.9 °C 33501.1 hPa SSW 0.3 km/h   92% 7.62 mm WeatherDisplay:10.37 W/m2 FEW
19:24 -17.3 °C -17.9 °C 33501.1 hPa WSW 3.4 km/h 15 km/h 92% 0 mm WeatherDisplay:10.37 W/m2 FEW
19:29 -17.3 °C -17.9 °C 33501.1 hPa South 1 km/h 5.1 km/h 92% 0 mm WeatherDisplay:10.37 W/m2 FEW
19:34 -17.3 °C -17.9 °C 33501.1 hPa SSW 0.3 km/h 20.9 km/h 92% 0 mm WeatherDisplay:10.37 W/m2 FEW
19:39 -17.3 °C -17.9 °C 33501.1 hPa Calm     92% 0 mm WeatherDisplay:10.37 W/m2 FEW
19:44 -17.3 °C -17.9 °C 33501.1 hPa Calm   17.9 km/h 92% 0 mm WeatherDisplay:10.37 W/m2 FEW
19:49 -17.3 °C -17.9 °C 33501.1 hPa Calm   11.9 km/h 92% 0 mm WeatherDisplay:10.37 W/m2 FEW
19:55 -17.3 °C -17.9 °C 33501.1 hPa Calm     92% 0 mm WeatherDisplay:10.37 W/m2 FEW
19:59 -17.3 °C -18 °C 33511.2 hPa South 0.8 km/h 9 km/h 92% 0 mm WeatherDisplay:10.37 W/m2 FEW
20:04 -17.3 °C -18 °C 33511.2 hPa SSE 1 km/h 9 km/h 92% 0 mm WeatherDisplay:10.37 W/m2 FEW
20:09 -17.3 °C -18 °C 33511.2 hPa SSE 0.8 km/h 26.9 km/h 92% 0 mm WeatherDisplay:10.37 W/m2 FEW
20:14 -17.3 °C -18 °C 33511.2 hPa South 6.4 km/h 17.9 km/h 92% 0 mm WeatherDisplay:10.37 W/m2 FEW
20:19 -17.3 °C -17.9 °C 33511.2 hPa NW 2.1 km/h 9 km/h 92% 0 mm WeatherDisplay:10.37 W/m2 FEW
20:24 -17.3 °C -17.9 °C 33511.2 hPa SW 6.4 km/h 11.9 km/h 92% 0 mm WeatherDisplay:10.37 W/m2 FEW
20:29 -17.3 °C -17.9 °C 33511.2 hPa SSE 3.7 km/h 9 km/h 92% 0 mm WeatherDisplay:10.37 W/m2 FEW
20:34 -17.3 °C -18 °C 33511.2 hPa SSW 3.9 km/h 11.9 km/h 92% 0 mm WeatherDisplay:10.37 W/m2 FEW
20:39 -17.3 °C -18 °C 33511.2 hPa SSW 5.6 km/h 6 km/h 92% 0 mm WeatherDisplay:10.37 W/m2 FEW
20:44 -17.3 °C -17.9 °C 33511.2 hPa West 1.6 km/h 9 km/h 92% 0 mm WeatherDisplay:10.37 W/m2 FEW
20:49 -17.3 °C -17.9 °C 33511.2 hPa SE 3.1 km/h 6 km/h 92% 0 mm WeatherDisplay:10.37 W/m2 FEW
20:54 -17.3 °C -17.9 °C 33524.8 hPa Calm   3.1 km/h 92% 0 mm WeatherDisplay:10.37 W/m2 FEW
20:59 -17.3 °C -18 °C 33524.8 hPa West 0.3 km/h   92% 0 mm WeatherDisplay:10.37 W/m2 FEW
21:04 -17.3 °C -18 °C 33524.8 hPa SE 0.3 km/h 29.8 km/h 92% 0 mm WeatherDisplay:10.37 W/m2 FEW
21:09 -17.3 °C -18 °C 33524.8 hPa Calm   6 km/h 92% 0 mm WeatherDisplay:10.37 W/m2 FEW
21:14 -17.3 °C -18 °C 33524.8 hPa South 2.3 km/h 9 km/h 92% 0 mm WeatherDisplay:10.37 W/m2 FEW
21:20 -17.3 °C -18 °C 33524.8 hPa South 3.4 km/h 9 km/h 92% 0 mm WeatherDisplay:10.37 W/m2 FEW
21:24 -17.3 °C -18 °C 33524.8 hPa Calm     92% 0 mm WeatherDisplay:10.37 W/m2 FEW
21:29 -17.3 °C -18 °C 33524.8 hPa Calm     92% 0 mm WeatherDisplay:10.37 W/m2 FEW
21:34 -17.3 °C -18 °C 33524.8 hPa South 1 km/h 9 km/h 92% 0 mm WeatherDisplay:10.37 W/m2 FEW
21:39 -17.4 °C -18 °C 33524.8 hPa SW 1.3 km/h 9 km/h 92% 7.62 mm WeatherDisplay:10.37 W/m2 RA
21:44 -17.4 °C -18.1 °C 33524.8 hPa SSE 3.1 km/h 11.9 km/h 92% 7.62 mm WeatherDisplay:10.37 W/m2 RA
21:49 -17.4 °C -18.1 °C 33524.8 hPa SSE 0.3 km/h   92% 7.62 mm WeatherDisplay:10.37 W/m2 FEW
21:54 -17.4 °C -18.1 °C 33524.8 hPa West 1.8 km/h 9 km/h 92% 7.62 mm WeatherDisplay:10.37 W/m2 FEW
21:59 -17.4 °C -18.1 °C 33524.8 hPa SSE 1.8 km/h 7.7 km/h 92% 7.62 mm WeatherDisplay:10.37 W/m2 FEW
22:04 -17.4 °C -18.1 °C 33524.8 hPa Calm     92% 7.62 mm WeatherDisplay:10.37 W/m2 FEW
22:10 -17.4 °C -18.1 °C 33524.8 hPa SSE 0.8 km/h 11.9 km/h 92% 7.62 mm WeatherDisplay:10.37 W/m2 FEW
22:15 -17.4 °C -18.1 °C 33534.9 hPa SSE 5.6 km/h 11.9 km/h 92% 7.62 mm WeatherDisplay:10.37 W/m2 FEW
22:20 -17.4 °C -18.1 °C 33534.9 hPa Calm     92% 12.7 mm WeatherDisplay:10.37 W/m2 RA
22:25 -17.4 °C -18.1 °C 33534.9 hPa Calm     92% 12.7 mm WeatherDisplay:10.37 W/m2 RA
22:30 -17.4 °C -18.1 °C 33534.9 hPa Calm     92% 12.7 mm WeatherDisplay:10.37 W/m2 FEW
22:35 -17.4 °C -18 °C 33534.9 hPa South 1.8 km/h 9 km/h 92% 12.7 mm WeatherDisplay:10.37 W/m2 FEW
22:40 -17.4 °C -18 °C 33534.9 hPa South 3.4 km/h 9 km/h 92% 7.62 mm WeatherDisplay:10.37 W/m2 FEW
22:45 -17.4 °C -18 °C 33534.9 hPa SSE 4.2 km/h 5.1 km/h 92% 7.62 mm WeatherDisplay:10.37 W/m2 FEW
22:50 -17.4 °C -18 °C 33534.9 hPa Calm   9 km/h 92% 7.62 mm WeatherDisplay:10.37 W/m2 FEW
22:55 -17.4 °C -18 °C 33534.9 hPa Calm     92% 7.62 mm WeatherDisplay:10.37 W/m2 FEW
23:00 -17.3 °C -18 °C 33534.9 hPa Calm   9 km/h 92% 7.62 mm WeatherDisplay:10.37 W/m2 FEW
23:06 -17.3 °C -18 °C 33534.9 hPa Calm   3.1 km/h 92% 7.62 mm WeatherDisplay:10.37 W/m2 FEW
23:11 -17.3 °C -18 °C 33534.9 hPa South 1 km/h 6 km/h 92% 7.62 mm WeatherDisplay:10.37 W/m2 FEW
23:16 -17.3 °C -18 °C 33534.9 hPa Calm     92% 7.62 mm WeatherDisplay:10.37 W/m2 FEW
23:21 -17.3 °C -18 °C 33534.9 hPa SSW 0.3 km/h 5.1 km/h 92% 0 mm WeatherDisplay:10.37 W/m2 FEW
23:26 -17.4 °C -18 °C 33534.9 hPa SSW 1.3 km/h 9 km/h 92% 0 mm WeatherDisplay:10.37 W/m2 FEW
23:31 -17.4 °C -18 °C 33534.9 hPa Calm     92% 0 mm WeatherDisplay:10.37 W/m2 FEW
23:36 -17.4 °C -18 °C 33534.9 hPa SSW 2.1 km/h 9 km/h 92% 0 mm WeatherDisplay:10.37 W/m2 FEW
23:41 -17.4 °C -18 °C 33534.9 hPa Calm     92% 0 mm WeatherDisplay:10.37 W/m2 FEW
23:46 -17.4 °C -18 °C 33534.9 hPa Calm     92% 0 mm WeatherDisplay:10.37 W/m2 FEW
23:51 -17.4 °C -18 °C 33545.1 hPa SSW 6.4 km/h 17.9 km/h 92% 0 mm WeatherDisplay:10.37 W/m2 FEW
23:56 -17.4 °C -18 °C 33545.1 hPa ESE 1.6 km/h   92% 0 mm WeatherDisplay:10.37 W/m2 FEW
Tuulensuunkaari, Veikkola, Suomi
Compliments of Weather Underground - 2.75 mb